Find Starlink 2188

NORAD ID: 48563 Int'l Des: 2021-041 Owner: SPXS Country: US Constellation: starlink operational
LEOCIRCULAR

現在のビュー

3D地球を読み込み中...

About Starlink 2188

Starlink 2188 (NORAD 48563) is a starlink constellation satellite (v1.0) launched May 15, 2021 by SPXS of US. It operates in LEO, CIRCULAR orbit with a mass of 260.00 kg.

次回通過

Passes for default location (London). Set your location on the main map for personalized predictions.

高度履歴

Loading altitude history...

軌道要素

1 48563U 21041L 26254.53427253 .00000407 00000-0 24889-4 0 9990
2 48563 53.1608 341.8606 0001333 63.3920 296.7218 15.31714453293757
Epoch: Sep 11, 2026 • Age: 19 hours

現在のステータス

高度 471.5 km
遠地点 / 近地点 N/A
速度 7.63 km/s
衛星直下点 -2.02°S, 128.67°W
打ち上げ日 May 15, 2021
運用期間 5.3 years
タイプ internet

技術仕様

分類 Payload
質量 260.00 kg
乾燥質量 248.00 kg
総質量 260.00 kg
長さ 0.20 m
直径 2.80 m
スパン 9.00 m
形状 Box + pan
製造者 SPXS
バスタイプ Starlink
フェーズステータス In Orbit
所有者/国 SPXS/US

Most Searched